Albany, OH

12:32 PM EST on December 06, 2016 (GMT -0500)
Ohio University

Weather History for KUNI - February, 2013

Change the Weather History Date:

Sunday, February 10, 2013

  Actual Average (KPKB) Record (KPKB)
Temperature  
Mean Temperature 38 °F 34 °F  
Max Temperature 55 °F 43 °F 72 °F (1976)
Min Temperature 21 °F 25 °F -27 °F (1899)
Degree Days  
Heating Degree Days 27 31  
Month to date heating degree days 320  
Since 1 July heating degree days 3265  
Cooling Degree Days 0 0  
Month to date cooling degree days 0  
Year to date cooling degree days 0  
Moisture  
Dew Point 26 °F    
Average Humidity 66    
Maximum Humidity 89    
Minimum Humidity 29    
Precipitation  
Precipitation 0.00 in 0.09 in 0.89 in (2009)
Month to date precipitation 0.97  
Year to date precipitation 3.92  
Sea Level Pressure  
Sea Level Pressure 30.11 in    
Wind  
Wind Speed 2 mph (South)    
Max Wind Speed 15 mph    
Max Gust Speed 23 mph    
Visibility 10 miles    
Events Rain    
T = Trace of Precipitation, MM = Missing Value Source: NWS Daily Summary

Daily Weather History Graph

Daily Weather History Graph

Search for Another Location

Airport or City:

Trip Planner

Search our weather history database for the weather conditions in past years. The results will help you decide how hot, cold, wet, or windy it might be!

Date:

Astronomy

Feb. 10, 2013 Rise Set
Actual Time 7:26 AM EST 6:00 PM EST
Civil Twilight 6:58 AM EST 6:28 PM EST
Nautical Twilight 6:27 AM EST 6:59 PM EST
Astronomical Twilight 5:55 AM EST 7:31 PM EST
Moon 7:15 AM EST (2/10) 6:49 PM EST (2/10)
Length of Visible Light 11h 29m
Length of Day
10h 34m
New Moon, 0% of the Moon is Illuminated
Feb 10
New Moon
Feb 17
First Quarter
Feb 25
Full
Mar 4
Last Quarter
Mar 11
New

Hourly Weather History & Observations

Time (EST) Temp. Windchill Dew Point Humidity Pressure Visibility Wind Dir Wind Speed Gust Speed Precip Events Conditions
12:15 AM 22.1 °F - 18.5 °F 86% 30.29 in 10.0 mi Calm Calm - N/A   Clear
12:35 AM 21.7 °F - 18.7 °F 88% 30.28 in 10.0 mi Calm Calm - N/A   Clear
12:55 AM 21.2 °F 16.4 °F 18.3 °F 89% 30.26 in 10.0 mi NE 3.5 mph - N/A   Clear
1:15 AM 23.7 °F - 18.5 °F 80% 30.26 in 10.0 mi Calm Calm - N/A   Clear
1:35 AM 23.7 °F - 18.3 °F 80% 30.25 in 10.0 mi Calm Calm - N/A   Clear
1:55 AM 21.6 °F - 17.6 °F 85% 30.25 in 10.0 mi Calm Calm - N/A   Clear
2:15 AM 21.9 °F - 18.7 °F 87% 30.25 in 10.0 mi Calm Calm - N/A   Clear
2:35 AM 22.1 °F - 18.7 °F 87% 30.26 in 10.0 mi Calm Calm - N/A   Clear
2:55 AM 21.9 °F - 18.5 °F 87% 30.25 in 10.0 mi Calm Calm - N/A   Clear
3:15 AM 22.1 °F - 18.5 °F 86% 30.24 in 10.0 mi Calm Calm - N/A   Clear
3:35 AM 23.2 °F - 19.2 °F 85% 30.24 in 10.0 mi Calm Calm - N/A   Clear
3:55 AM 22.1 °F - 18.1 °F 85% 30.23 in 10.0 mi Calm Calm - N/A   Clear
4:15 AM 22.3 °F - 18.9 °F 87% 30.22 in 10.0 mi Calm Calm - N/A   Clear
4:35 AM 21.9 °F - 19.2 °F 89% 30.23 in 10.0 mi Calm Calm - N/A   Clear
4:55 AM 23.9 °F - 20.3 °F 86% 30.22 in 10.0 mi Calm Calm - N/A   Clear
5:15 AM 24.4 °F - 20.7 °F 86% 30.23 in 10.0 mi Calm Calm - N/A   Clear
5:35 AM 24.4 °F - 21.2 °F 87% 30.23 in 10.0 mi Calm Calm - N/A   Clear
5:55 AM 25.2 °F - 21.7 °F 87% 30.24 in 10.0 mi Calm Calm - N/A   Clear
6:15 AM 25.7 °F - 22.1 °F 86% 30.24 in 10.0 mi Calm Calm - N/A   Clear
6:35 AM 25.9 °F - 21.6 °F 84% 30.24 in 10.0 mi Calm Calm - N/A   Clear
6:55 AM 26.6 °F 22.6 °F 22.8 °F 86% 30.22 in 10.0 mi ENE 3.5 mph - N/A   Clear
7:15 AM 28.0 °F - 22.1 °F 78% 30.22 in 10.0 mi Calm Calm - N/A   Clear
7:35 AM 28.4 °F 23.3 °F 21.7 °F 76% 30.24 in 10.0 mi WSW 4.6 mph - N/A   Clear
7:55 AM 27.9 °F - 23.4 °F 83% 30.24 in 10.0 mi Calm Calm - N/A   Mostly Cloudy
8:15 AM 28.4 °F - 23.4 °F 81% 30.24 in 10.0 mi Calm Calm - N/A   Overcast
8:35 AM 29.3 °F - 23.5 °F 79% 30.23 in 10.0 mi Calm Calm - N/A   Overcast
8:55 AM 30.2 °F - 22.8 °F 74% 30.22 in 10.0 mi Calm Calm - N/A   Overcast
9:15 AM 30.9 °F - 22.6 °F 71% 30.22 in 10.0 mi Calm Calm - N/A   Overcast
9:35 AM 32.0 °F 28.7 °F 23.0 °F 69% 30.19 in 10.0 mi NE 3.5 mph - N/A   Scattered Clouds
9:55 AM 32.9 °F - 23.0 °F 67% 30.20 in 10.0 mi Calm Calm - N/A   Clear
10:15 AM 36.1 °F - 21.4 °F 55% 30.19 in 10.0 mi Calm Calm - N/A   Clear
10:35 AM 37.6 °F 35.1 °F 21.0 °F 51% 30.19 in 10.0 mi South 3.5 mph - N/A   Scattered Clouds
10:55 AM 39.4 °F 37.2 °F 21.4 °F 49% 30.18 in 10.0 mi SSE 3.5 mph - N/A   Mostly Cloudy
11:15 AM 41.0 °F - 21.9 °F 47% 30.16 in 10.0 mi Calm Calm - N/A   Overcast
11:35 AM 42.6 °F 37.2 °F 22.8 °F 46% 30.19 in 10.0 mi SW 9.2 mph - N/A   Mostly Cloudy
11:55 AM 42.8 °F 40.1 °F 21.7 °F 43% 30.17 in 10.0 mi South 4.6 mph - N/A   Scattered Clouds
12:15 PM 46.0 °F - 22.3 °F 39% 30.14 in 10.0 mi Calm Calm - N/A   Scattered Clouds
12:35 PM 48.2 °F - 21.7 °F 35% 30.10 in 10.0 mi South 4.6 mph - N/A   Scattered Clouds
12:55 PM 49.6 °F - 22.8 °F 35% 30.10 in 10.0 mi SSW 8.1 mph - N/A   Mostly Cloudy
1:15 PM 50.0 °F - 21.9 °F 33% 30.08 in 10.0 mi SE 5.8 mph - N/A   Overcast
1:35 PM 50.0 °F - 23.7 °F 36% 30.07 in 10.0 mi Calm Calm - N/A   Overcast
1:55 PM 51.1 °F - 23.4 °F 34% 30.07 in 10.0 mi South 9.2 mph - N/A   Overcast
2:15 PM 52.0 °F - 22.6 °F 32% 30.04 in 10.0 mi SSE 8.1 mph - N/A   Overcast
2:35 PM 53.4 °F - 23.0 °F 31% 30.02 in 10.0 mi SSE 5.8 mph - N/A   Overcast
2:55 PM 54.5 °F - 23.9 °F 31% 30.00 in 10.0 mi South 4.6 mph - N/A   Mostly Cloudy
3:15 PM 54.7 °F - 24.1 °F 31% 30.01 in 10.0 mi South 5.8 mph - N/A   Mostly Cloudy
3:35 PM 54.9 °F - 23.9 °F 30% 30.01 in 10.0 mi South 4.6 mph - N/A   Mostly Cloudy
3:55 PM 55.0 °F - 24.1 °F 30% 30.00 in 10.0 mi SSE 3.5 mph - N/A   Overcast
4:15 PM 55.8 °F - 24.1 °F 29% 29.99 in 10.0 mi Calm Calm - N/A   Mostly Cloudy
4:35 PM 53.4 °F - 28.4 °F 38% 29.99 in 10.0 mi Calm Calm - N/A   Mostly Cloudy
4:55 PM 53.1 °F - 29.1 °F 40% 29.99 in 10.0 mi Calm Calm - N/A   Overcast
5:15 PM 50.7 °F - 31.5 °F 48% 29.99 in 10.0 mi Calm Calm - N/A   Mostly Cloudy
5:35 PM 49.6 °F - 31.8 °F 50% 29.99 in 10.0 mi Calm Calm - N/A   Mostly Cloudy
5:55 PM 48.9 °F - 30.0 °F 48% 29.99 in 10.0 mi Calm Calm - N/A   Scattered Clouds
6:15 PM 46.6 °F - 31.8 °F 56% 29.99 in 10.0 mi WSW 3.5 mph - N/A   Clear
6:35 PM 48.2 °F - 27.1 °F 44% 29.98 in 10.0 mi SE 4.6 mph - N/A   Mostly Cloudy
6:55 PM 46.2 °F 45.0 °F 30.6 °F 54% 29.98 in 10.0 mi South 3.5 mph - N/A   Overcast
7:15 PM 49.1 °F - 27.9 °F 44% 29.98 in 10.0 mi SSW 15.0 mph 23.0 mph N/A Rain Light Rain
7:35 PM 48.2 °F - 35.4 °F 61% 29.98 in 10.0 mi SSW 10.4 mph - N/A Rain Light Rain
7:55 PM 46.2 °F 41.2 °F 38.3 °F 74% 29.97 in 10.0 mi South 10.4 mph - N/A Rain Rain
8:15 PM 45.1 °F 42.0 °F 40.1 °F 82% 29.97 in 10.0 mi South 5.8 mph - N/A Rain Light Rain
8:35 PM 45.1 °F 41.4 °F 40.1 °F 82% 29.97 in 10.0 mi South 6.9 mph - N/A Rain Light Rain
8:55 PM 44.8 °F 41.0 °F 40.1 °F 84% 29.96 in 10.0 mi South 6.9 mph - N/A Rain Light Rain
9:15 PM 44.8 °F 39.9 °F 40.1 °F 84% 29.94 in 10.0 mi SSE 9.2 mph - N/A Rain Light Rain
9:35 PM 45.0 °F 40.1 °F 40.1 °F 83% 29.94 in 10.0 mi South 9.2 mph - N/A Rain Rain
9:55 PM 44.4 °F 40.0 °F 40.1 °F 85% 29.93 in 5.0 mi South 8.1 mph 16.1 mph N/A Rain Light Rain
10:15 PM 44.1 °F 39.0 °F 40.6 °F 88% 29.93 in 10.0 mi SSE 9.2 mph - N/A   Overcast
10:35 PM 44.2 °F 40.3 °F 40.5 °F 87% 29.91 in 10.0 mi SSE 6.9 mph - N/A   Overcast
10:55 PM 44.6 °F 41.4 °F 40.6 °F 86% 29.91 in 10.0 mi South 5.8 mph - N/A   Light Drizzle
11:15 PM 44.6 °F 40.7 °F 40.5 °F 85% 29.90 in 10.0 mi SSE 6.9 mph - N/A   Overcast
11:35 PM 44.8 °F 41.0 °F 40.6 °F 85% 29.89 in 10.0 mi South 6.9 mph - N/A   Overcast
11:55 PM 45.1 °F 41.4 °F 40.5 °F 84% 29.88 in 10.0 mi South 6.9 mph - N/A   Overcast